Location: Gazon
(48.1318°N, 1.2708°W)
Time: 02:13:04
(UTC+00:00)

Lacrosse 5 rocket - Pass Details

Date: 18 September 2020
Orbit: 460 x 636 km, 57.0° (Epoch: 29 October)

Event Time Altitude Azimuth Distance (km) Brightness Sun altitude
Rises 21:25:02 0° 297° (WNW) 2,824 6.0 -30.3°
Reaches altitude 10° 21:27:32 10° 309° (NW) 1,951 5.0 -30.6°
Enters shadow 21:30:46 27° 355° (N) 1,201 3.4 -30.9°
